This demonstration page uses our WeatherBlox Daily Observations layout. Learn more.

Left ArrowRight Arrow

39.08367, -84.50855

Hourly Observations for May 16, 2020

Temp ( °F °C ) Dew Point ( °F °C ) Humidity (%) Winds ( mph kmh ) Pressure ( in mb ) Visibility ( mi km ) Precip ( " mm )
12:02 am 00:02 Mostly Cloudy with Fog 58 14.4 58 14.4 100 100 SSW 3 6 30.02 1017 0.25 0.402335 0 0
12:25 am 00:25 Mostly Cloudy with Mist and Fog 58 14.4 58 14.4 100 100 Calm 30.02 1017 1 1.60934 0 0
12:38 am 00:38 Clear with Mist and Fog 59 15 59 15 100 100 Calm 30.02 1017 1.25 2.011675 0 0
12:53 am 00:53 Clear with Mist and Fog 59 15 58 14.4 96 96 Calm 30.01 1016 1.75 2.816345 0 0
1:07 am 01:07 Clear with Mist and Fog 59 15 59 15 100 100 Calm 30.02 1017 0.75 1.207005 0 0
1:12 am 01:12 Clear with Mist and Fog 59 15 59 15 100 100 Calm 30.02 1017 2 3.21868 0 0
1:20 am 01:20 Clear with Mist and Fog 59 15 58 14.4 96 96 Calm 30.02 1017 4 6.43736 0 0
1:38 am 01:38 Clear with Mist and Fog 58 14.4 58 14.4 100 100 Calm 30.01 1016 1.5 2.41401 0 0
1:43 am 01:43 Mostly Cloudy with Fog 58 14.4 58 14.4 100 100 NE 3 6 30.01 1016 0.25 0.402335 0 0
1:53 am 01:53 Mostly Cloudy with Fog 58 14.4 58 14.4 100 100 Calm 30.01 1016 0.25 0.402335 0 0
2:06 am 02:06 Cloudy with Mist and Fog 56 13.3 56 13.3 100 100 Calm 30.01 1016 1.25 2.011675 0 0
2:30 am 02:30 Cloudy with Mist and Fog 59 15 58 14.4 96 96 Calm 30.01 1016 3 4.82802 0 0
2:53 am 02:53 Mostly Cloudy with Mist and Fog 59 15 58 14.4 96 96 Calm 30 1016 4 6.43736 0 0
3:04 am 03:04 Mostly Cloudy with Mist and Fog 58 14.4 58 14.4 100 100 Calm 30.01 1016 1.5 2.41401 0 0
3:15 am 03:15 Cloudy with Mist and Fog 58 14.4 58 14.4 100 100 Calm 30.01 1016 3 4.82802 0 0
3:53 am 03:53 Partly Cloudy with Mist and Fog 60 15.6 59 15 96 96 Calm 30.01 1016 4 6.43736 0 0
4:53 am 04:53 Cloudy with Light Rain 61 16.1 60 15.6 97 97 Calm 30.01 1016 4 6.43736 0.01 0.254
5:27 am 05:27 Cloudy with Light Rain 60 15.6 60 15.6 100 100 NNE 3 6 30.02 1016 2.5 4.02335 0.02 0.508
5:34 am 05:34 Cloudy with Light Rain 61 16.1 60 15.6 97 97 Calm 30.02 1016 3 4.82802 0.03 0.762
5:45 am 05:45 Cloudy with Light Rain 61 16.1 60 15.6 97 97 N 5 7 30.03 1017 3 4.82802 0.03 0.762
5:53 am 05:53 Cloudy with Light Rain 61 16.1 60 15.6 97 97 NNE 5 7 30.02 1017 4 6.43736 0.03 0.762
6:53 am 06:53 Cloudy with Light Rain 62 16.7 61 16.1 96 96 Calm 30.03 1017 2 3.21868 0.02 0.508
7:53 am 07:53 Cloudy with Mist and Fog 63 17.2 62 16.7 97 97 NNE 3 6 30.04 1017 3 4.82802 0.01 0.254
8:53 am 08:53 Cloudy with Mist and Fog 64 17.8 63 17.2 96 96 ENE 5 7 30.07 1018 5 8.0467 0 0
9:53 am 09:53 Cloudy with Light Rain 65 18.3 64 17.8 97 97 NE 5 7 30.07 1018 4 6.43736 0.001 0.001
10:53 am 10:53 Cloudy 68 20 65 18.3 90 90 NE 9 15 30.06 1018 10 16.0934 0.001 0.001
11:53 am 11:53 Cloudy 69 20.6 65 18.3 87 87 E 6 9 30.06 1018 10 16.0934 0 0
12:53 pm 12:53 Cloudy 72 22.2 65 18.3 79 79 Calm 30.06 1018 10 16.0934 0 0
1:00 pm 13:00 Cloudy 73 22.8 66 18.9 79 79 Calm 30.04 1017 10 16.0934 0 0
1:53 pm 13:53 Mostly Cloudy 75 23.9 66 18.9 74 74 Calm 30.04 1017 10 16.0934 0 0
4:53 pm 16:53 Mostly Cloudy 77 25 65 18.3 66 66 NE 9 15 29.99 1016 10 16.0934 0 0
5:53 pm 17:53 Partly Cloudy 77 25 65 18.3 66 66 NNE 13 20 29.98 1015 10 16.0934 0 0
6:53 pm 18:53 Sunny 76 24.4 65 18.3 69 69 NE 10 17 29.97 1015 10 16.0934 0 0
7:53 pm 19:53 Sunny 74 23.3 65 18.3 74 74 NE 7 11 29.98 1015 10 16.0934 0 0
8:53 pm 20:53 Clear 70 21.1 64 17.8 82 82 ENE 3 6 29.98 1015 10 16.0934 0 0
9:53 pm 21:53 Mostly Clear 66 18.9 64 17.8 93 93 NNE 3 6 29.99 1016 10 16.0934 0 0
10:53 pm 22:53 Clear 66 18.9 63 17.2 90 90 Calm 30 1016 10 16.0934 0 0
11:53 pm 23:53 Cloudy 65 18.3 63 17.2 93 93 NE 3 6 29.99 1016 10 16.0934 0 0

Powered by AerisWeather